Location: Marcé
(47.5801°N, 0.3280°W)
Time: 07:58:49
(UTC+01:00)

Vanguard 1 - Pass Details

Date: 07 December 2021
Orbit: 652 x 3830 km, 34.2° (Epoch: 16 January)

Event Time Altitude Azimuth Distance (km) Brightness Sun altitude
Exits shadow 03:02:17 47° 143° (SE) 4,202 13.0 -54.1°
Drops below altitude 10° 03:14:30 10° 113° (ESE) 5,640 14.1 -52.3°
Sets 03:18:11 0° 109° (ESE) 6,309 14.6 -51.7°
